This is the latest recevied weather packets stored in our database for station/object SP1BMW-13. If no packets are shown the sender has not sent any weather packets the latest 10 day(s).
| Time | Temp. | Humidity | Pressure | Rain* | Wind** | Luminosity | Snow |
|---|---|---|---|---|---|---|---|
| 1787927838 | 24.44° C | 55% | 1009.1 hPa | 0 mm | 0.89 m/s, 78° | 305 W/m² | - |
| 1787927778 | 24.44° C | 55% | 1009.1 hPa | 0 mm | 4.02 m/s, 68° | 301 W/m² | - |
| 1787927718 | 24.44° C | 55% | 1009.2 hPa | 0 mm | 1.79 m/s, 106° | 275 W/m² | - |
| 1787927658 | 24.44° C | 56% | 1008.8 hPa | 0 mm | 1.79 m/s, 12° | 254 W/m² | - |
| 1787927598 | 24.44° C | 56% | 1009.1 hPa | 0 mm | 1.34 m/s, 42° | 231 W/m² | - |
| 1787927539 | 24.44° C | 56% | 1009.1 hPa | 0 mm | 0.89 m/s, 31° | 223 W/m² | - |
| 1787927478 | 24.44° C | 56% | 1008.8 hPa | 0 mm | 1.34 m/s, 11° | 217 W/m² | - |
| 1787927418 | 24.44° C | 56% | 1009.1 hPa | 0 mm | 1.34 m/s, 268° | 209 W/m² | - |
| 1787927358 | 24.44° C | 56% | 1009.1 hPa | 0 mm | 1.34 m/s, 57° | 220 W/m² | - |
| 1787927298 | 24.44° C | 57% | 1008.9 hPa | 0 mm | 0.89 m/s, 129° | 214 W/m² | - |
| 1787927238 | 24.44° C | 56% | 1008.8 hPa | 0 mm | 1.34 m/s, 47° | 230 W/m² | - |
| 1787927178 | 24.44° C | 56% | 1009 hPa | 0 mm | 1.34 m/s, 41° | 229 W/m² | - |
| 1787927118 | 24.44° C | 56% | 1009.1 hPa | 0 mm | 1.34 m/s, 24° | 233 W/m² | - |
| 1787927058 | 24.44° C | 57% | 1009 hPa | 0 mm | 0.89 m/s, 18° | 231 W/m² | - |
| 1787926998 | 24.44° C | 56% | 1009.1 hPa | 0 mm | 1.79 m/s, 15° | 223 W/m² | - |
| 1787926938 | 23.89° C | 56% | 1009 hPa | 0 mm | 1.34 m/s, 106° | 252 W/m² | - |
| 1787926878 | 23.89° C | 56% | 1009.1 hPa | 0 mm | 3.13 m/s, 32° | 239 W/m² | - |
| 1787926818 | 23.89° C | 56% | 1009 hPa | 0 mm | 1.79 m/s, 28° | 259 W/m² | - |
| 1787926758 | 23.89° C | 56% | 1009.1 hPa | 0 mm | 1.79 m/s, 38° | 246 W/m² | - |
| 1787926698 | 23.89° C | 57% | 1009.3 hPa | 0 mm | 1.34 m/s, 54° | 235 W/m² | - |
| 1787926638 | 23.89° C | 57% | 1009.1 hPa | 0 mm | 0.89 m/s, 58° | 223 W/m² | - |
| 1787926578 | 23.89° C | 56% | 1009.4 hPa | 0 mm | 2.24 m/s, 43° | 210 W/m² | - |
| 1787926518 | 23.89° C | 57% | 1009.3 hPa | 0 mm | 0 m/s | 208 W/m² | - |
| 1787926458 | 23.89° C | 56% | 1009.3 hPa | 0 mm | 1.79 m/s, 27° | 190 W/m² | - |
| 1787926398 | 23.89° C | 57% | 1009.2 hPa | 0 mm | 0.45 m/s, 51° | 175 W/m² | - |
* Rain latest hour (hover to see other rain measurements)
** Current wind speed in m/s (hover to see current wind gust speed)